[[{"header":{"parameterUnit":"m.s-1","parameterCategory":1,"la1":30.2991,"la2":30.254,"lo1":-89.0895,"lo2":-89.0444,"dy":0.0017,"dx":0.0017,"nx":28,"ny":28,"refTime":"2025-07-25T09:00:00:Z","depth":0,"parameterNumber":2,"parameterNumberName":"U-component_of_WINDS"},"data":[0,0,0,0,0,0,0,0,0,0,0,0,0,0,0,0,0,0,0,0,0,0,0,0,0,0,0,0,0,0,0,0,0,0,0,0,0,0,0,0,0,0,0,0,0,0,0,0,0,0,0,0,0,0,0,0,0,0,-4.1456,-4.1458,0,-4.1563,-4.1564,-4.1565,-4.1609,-4.1609,-4.1608,-4.1608,-4.1714,-4.1717,-4.172,0,0,0,0,0,0,0,0,0,0,0,0,0,-4.1289,-4.1292,-4.1456,-4.1458,-4.1459,-4.1563,-4.1564,-4.1566,-4.1609,-4.1609,-4.1608,-4.1608,-4.1713,-4.1716,-4.172,0,0,0,0,0,0,0,0,0,0,0,0,0,-4.1375,-4.1293,-4.1456,-4.1493,-4.1498,-4.1563,-4.1564,-4.1566,-4.1609,-4.1609,-4.1608,-4.1608,-4.1712,-4.1716,-4.172,-4.1755,0,0,-4.1734,-4.1736,0,0,0,0,0,0,0,0,-4.137,-4.1381,-4.1486,-4.1491,-4.1496,-4.1572,-4.1544,-4.1629,-4.1609,-4.1567,-4.1608,-4.1608,-4.1667,-4.1675,-4.1696,-4.176,-4.1765,-4.1735,-4.1737,-4.1739,-4.1741,0,0,0,0,0,0,0,-4.1364,-4.1377,-4.1498,-4.1488,-4.1494,-4.1504,-4.1516,-4.156,-4.1617,-4.157,-4.1574,-4.1586,-4.1669,-4.1691,-4.1698,-4.1766,-4.1735,-4.1739,-4.1741,-4.1743,-4.1868,-4.1869,0,0,0,0,0,0,-4.1353,-4.1372,-4.1495,-4.1502,-4.1431,-4.1507,-4.1521,-4.1548,-4.1617,-4.1627,-4.1586,-4.1587,-4.1683,-4.1693,-4.1702,-4.1749,-4.1739,-4.1744,-4.1746,-4.1867,-4.1868,-4.1869,0,0,0,0,0,0,-4.1349,-4.1363,-4.1491,-4.1438,-4.1455,-4.1511,-4.1541,-4.155,-4.1572,-4.1629,-4.1639,-4.1598,-4.1684,-4.1696,-4.1743,-4.1753,-4.1746,-4.175,-4.1867,-4.1868,-4.1868,-4.1842,0,0,0,0,0,0,-4.1344,-4.1362,-4.1375,-4.1438,-4.1458,-4.1529,-4.1542,-4.1553,-4.158,-4.1583,-4.1643,-4.1652,-4.1684,-4.1736,-4.1747,-4.1759,-4.1753,-4.1866,-4.1867,-4.1868,-4.1842,-4.1842,-4.1841,0,0,0,0,0,-4.1338,-4.1362,-4.1376,-4.139,-4.1476,-4.153,-4.1541,-4.1579,-4.1581,-4.1595,-4.1632,-4.165,-4.1751,-4.174,-4.1753,-4.1767,-4.1865,-4.1867,-4.1868,-4.1842,-4.1842,-4.1841,0,0,0,0,0,0,-4.1297,-4.1371,-4.1387,-4.1432,-4.1475,-4.1537,-4.1556,-4.1577,-4.1618,-4.1619,-4.1663,-4.1676,-4.1719,-4.1748,-4.1735,-4.1806,-4.181,-4.1814,-4.1785,-4.1785,-4.1785,-4.1776,-4.1757,0,0,0,0,0,-4.1294,-4.1332,-4.1394,-4.1429,-4.1449,-4.1499,-4.1524,-4.155,-4.1595,-4.1613,-4.1653,-4.1695,-4.1737,-4.1763,-4.1804,-4.1847,-4.1861,-4.1863,-4.1863,-4.1863,-4.1865,-4.1892,-4.1894,-4.1873,-4.1873,-4.1873,0,0,-4.1287,-4.1332,-4.1353,-4.1422,-4.1458,-4.1496,-4.1514,-4.1553,-4.1582,-4.1618,-4.1665,-4.1697,-4.1747,-4.1793,-4.1815,-4.1818,-4.1875,-4.1864,-4.1863,-4.1866,-4.1893,-4.1895,-4.1897,-4.1874,-4.1874,-4.1874,0,0,-4.1293,-4.1331,-4.1365,-4.1401,-4.1457,-4.149,-4.1498,-4.1559,-4.1582,-4.163,-4.1659,-4.1694,-4.1764,-4.18,-4.1827,-4.1851,-4.187,-4.1864,-4.1861,-4.1887,-4.1889,-4.189,-4.19,-4.1902,-4.1866,-4.1866,-4.1866,0,-4.1277,-4.1337,-4.1379,-4.1418,-4.1448,-4.1485,-4.152,-4.1553,-4.1618,-4.1637,-4.1641,-4.1732,-4.1768,-4.1824,-4.183,-4.1851,-4.1862,-4.1856,-4.1885,-4.1887,-4.1889,-4.1899,-4.1902,-4.1865,-4.1865,-4.1865,-4.1865,0,-4.1314,-4.1356,-4.1376,-4.1441,-4.1473,-4.1509,-4.1557,-4.1585,-4.1609,-4.1642,-4.1693,-4.1739,-4.1791,-4.1806,-4.1828,-4.1866,-4.1866,-4.1877,-4.1881,-4.189,-4.1899,-4.1903,-4.1863,-4.1864,-4.1864,-4.1864,0,0,-4.1295,-4.1386,-4.1392,-4.1423,-4.1488,-4.1521,-4.156,-4.1613,-4.1636,-4.1681,-4.1714,-4.1775,-4.1787,-4.1817,-4.1845,-4.1868,-4.1886,-4.1876,-4.1878,-4.1876,-4.193,-4.1921,-4.1924,-4.1899,-4.19,-4.1901,-4.1926,0,-4.1311,-4.1383,-4.1424,-4.1479,-4.1518,-4.1556,-4.159,-4.1634,-4.1667,-4.1705,-4.1742,-4.1784,-4.1796,-4.1815,-4.1839,-4.1878,-4.1897,-4.1877,-4.1931,-4.1932,-4.1916,-4.1929,-4.1919,-4.1941,-4.193,-4.1931,-4.1931,0,-4.1337,-4.1384,-4.1443,-4.1507,-4.1525,-4.1554,-4.1608,-4.1644,-4.1695,-4.1718,-4.1754,-4.1783,-4.1826,-4.1829,-4.1889,-4.1875,-4.19,-4.1923,-4.1925,-4.193,-4.1931,-4.1935,-4.1948,-4.1951,-4.1937,-4.1937,-4.1937,0,-4.1318,-4.1395,-4.1441,-4.1466,-4.1541,-4.1562,-4.1594,-4.1645,-4.1675,-4.1721,-4.1742,-4.1792,-4.1819,-4.1858,-4.1899,-4.1897,-4.1956,-4.1962,-4.1976,-4.1975,-4.1985,-4.1984,-4.2002,-4.2003,-4.2003,-4.2003,-4.2003,0,-4.133,-4.1365,-4.1434,-4.1462,-4.1503,-4.155,-4.1589,-4.1624,-4.167,-4.1706,-4.1742,-4.1774,-4.1828,-4.1868,-4.1901,-4.1947,-4.1959,-4.1978,-4.1986,-4.1974,-4.1972,-4.199,-4.1989,-4.2004,-4.2003,-4.2003,-4.2003,0,-4.1314,-4.1362,-4.1415,-4.1483,-4.1501,-4.1528,-4.1586,-4.1615,-4.1652,-4.1697,-4.171,-4.1767,-4.1816,-4.1862,-4.1927,-4.1949,-4.1995,-4.2006,-4.1978,-4.1982,-4.1994,-4.1992,-4.2024,-4.2031,-4.2027,-4.2027,-4.2027,0,-4.1318,-4.1347,-4.1419,-4.1446,-4.1478,-4.1521,-4.1553,-4.1601,-4.1633,-4.1695,-4.1717,-4.1769,-4.1813,-4.189,-4.1937,-4.1987,-4.1999,-4.2007,-4.2007,-4.1995,-4.1999,-4.1997,-4.2,-4.2006,-4.2006,-4.2005,-4.2005,0,-4.1321,-4.1344,-4.1389,-4.1442,-4.148,-4.1524,-4.1569,-4.1589,-4.1647,-4.168,-4.1732,-4.1766,-4.1834,-4.1886,-4.1942,-4.1975,-4.2,-4.2006,-4.2012,-4.1999,-4.1982,-4.1991,-4.1975,-4.2004,-4.2004,-4.2004,-4.2004,-4.2004,-4.1316,-4.1343,-4.1399,-4.1448,-4.1488,-4.153,-4.1561,-4.1603,-4.1647,-4.1706,-4.1733,-4.1785,-4.1838,-4.1917,-4.1951,-4.1992,-4.1998,-4.2006,-4.2008,-4.2009,-4.2007,-4.1976,-4.2003,-4.2003,-4.2003,-4.2003,-4.2003,0,-4.132,-4.1358,-4.1403,-4.1467,-4.1506,-4.1528,-4.158,-4.1611,-4.1657,-4.1705,-4.1749,-4.1809,-4.186,-4.1912,-4.1966,-4.199,-4.2003,-4.2002,-4.2,-4.2008,-4.1999,-4.1988,-4.1991,-4.1991,-4.1991,-4.1991,-4.1991,-4.1991,-4.1327,-4.1375,-4.1405,-4.1474,-4.1512,-4.1564,-4.1592,-4.1632,-4.1671,-4.1737,-4.178,-4.1814,-4.1865,-4.1923,-4.1972,-4.1986,-4.2004,-4.2,-4.2017,-4.2008,-4.2008,-4.2009,-4.1999,-4.2004,-4.2004,-4.2023,-4.2023,-4.2023]},{"header":{"parameterUnit":"m.s-1","parameterCategory":1,"la1":30.2991,"la2":30.254,"lo1":-89.0895,"lo2":-89.0444,"dy":0.0017,"dx":0.0017,"nx":28,"ny":28,"refTime":"2025-07-25T09:00:00:Z","depth":0,"parameterNumber":3,"parameterNumberName":"V-component_of_WINDS"},"data":[0,0,0,0,0,0,0,0,0,0,0,0,0,0,0,0,0,0,0,0,0,0,0,0,0,0,0,0,0,0,0,0,0,0,0,0,0,0,0,0,0,0,0,0,0,0,0,0,0,0,0,0,0,0,0,0,0,0,2.4297,2.4294,0,2.4072,2.407,2.4067,2.385,2.3847,2.3844,2.3842,2.3626,2.3623,2.362,0,0,0,0,0,0,0,0,0,0,0,0,0,2.4553,2.4549,2.4297,2.4294,2.4291,2.4072,2.4069,2.4066,2.3851,2.3847,2.3844,2.384,2.3627,2.3623,2.3619,0,0,0,0,0,0,0,0,0,0,0,0,0,2.4397,2.4548,2.4297,2.4157,2.4142,2.4073,2.4069,2.4066,2.3851,2.3847,2.3843,2.3839,2.3628,2.3623,2.3619,2.3675,0,0,2.3605,2.3603,0,0,0,0,0,0,0,0,2.4406,2.4388,2.418,2.4166,2.415,2.3984,2.408,2.3935,2.3852,2.3962,2.3842,2.3837,2.375,2.3735,2.3702,2.3665,2.3656,2.3604,2.3601,2.3599,2.3598,0,0,0,0,0,0,0,2.4417,2.4396,2.4208,2.4178,2.4159,2.411,2.4083,2.4052,2.3883,2.3952,2.3936,2.3912,2.374,2.3707,2.3696,2.3652,2.3604,2.36,2.3597,2.3595,2.3653,2.3657,0,0,0,0,0,0,2.4447,2.4407,2.4215,2.4202,2.4269,2.4108,2.4078,2.4042,2.3882,2.3854,2.3915,2.3902,2.3717,2.3701,2.3687,2.3743,2.3599,2.3595,2.3592,2.3648,2.3654,2.3658,0,0,0,0,0,0,2.4454,2.4432,2.4224,2.4299,2.4269,2.4108,2.407,2.404,2.4006,2.3854,2.3825,2.3912,2.3713,2.3694,2.3679,2.3733,2.3593,2.3589,2.3643,2.365,2.3656,2.3857,0,0,0,0,0,0,2.4462,2.4436,2.4452,2.4301,2.4266,2.4217,2.4073,2.4039,2.3997,2.3978,2.3843,2.3817,2.3708,2.3687,2.3675,2.3724,2.3585,2.3638,2.3646,2.3654,2.3845,2.387,2.3891,0,0,0,0,0,2.4472,2.4521,2.4454,2.4432,2.4282,2.422,2.42,2.4071,2.4002,2.402,2.3922,2.3821,2.3729,2.3688,2.3671,2.3721,2.3634,2.3644,2.3653,2.3835,2.3865,2.389,0,0,0,0,0,0,2.4687,2.4498,2.4423,2.4423,2.4339,2.4184,2.4201,2.4107,2.4044,2.4029,2.3875,2.3847,2.3851,2.3784,2.3741,2.3768,2.3668,2.3675,2.3811,2.3838,2.3861,2.3878,2.3581,0,0,0,0,0,2.4733,2.4694,2.4533,2.4549,2.451,2.4364,2.4332,2.4239,2.4148,2.4112,2.4014,2.3933,2.3885,2.3858,2.3806,2.3834,2.3803,2.386,2.3883,2.3903,2.3911,2.3924,2.3948,2.369,2.369,2.369,0,0,2.4831,2.4723,2.4709,2.459,2.4513,2.4481,2.4336,2.4307,2.4282,2.4109,2.4088,2.4014,2.3914,2.3922,2.392,2.3866,2.3975,2.3915,2.3932,2.3929,2.3936,2.3961,2.3983,2.3697,2.3696,2.3695,0,0,2.4992,2.4905,2.4909,2.4835,2.472,2.4622,2.4624,2.4483,2.4425,2.4401,2.4271,2.4242,2.4163,2.4097,2.4054,2.4191,2.4097,2.4179,2.43,2.4314,2.4334,2.4351,2.4403,2.4423,2.4188,2.4189,2.4189,0,2.5129,2.507,2.4925,2.4903,2.4857,2.4694,2.47,2.4637,2.4514,2.4487,2.4427,2.4325,2.4246,2.4237,2.4271,2.424,2.424,2.4195,2.4342,2.4358,2.4372,2.442,2.4439,2.4199,2.4198,2.4197,2.4196,0,2.5246,2.5207,2.5225,2.5105,2.506,2.5054,2.4912,2.4885,2.4797,2.4707,2.4687,2.4586,2.4511,2.4502,2.4417,2.4482,2.4452,2.437,2.4266,2.441,2.4452,2.4469,2.4215,2.4211,2.4208,2.4205,0,0,2.5536,2.5335,2.5345,2.5289,2.515,2.512,2.5108,2.503,2.5012,2.4933,2.4921,2.4858,2.478,2.4731,2.4638,2.465,2.4768,2.4565,2.4561,2.4609,2.4837,2.4901,2.4924,2.4704,2.4707,2.4709,2.4846,0,2.5676,2.5637,2.5508,2.5511,2.5476,2.5321,2.5311,2.5228,2.5144,2.5106,2.5015,2.4973,2.4872,2.4842,2.4847,2.4753,2.4812,2.4741,2.4696,2.4696,2.4727,2.4946,2.5013,2.5147,2.4861,2.4864,2.4866,0,2.5833,2.576,2.5759,2.5622,2.5602,2.5595,2.5514,2.5478,2.5382,2.5321,2.5266,2.516,2.5143,2.5046,2.5022,2.4977,2.4951,2.4902,2.4905,2.4897,2.4791,2.4947,2.5187,2.5208,2.489,2.4888,2.4886,0,2.6048,2.595,2.5936,2.5893,2.5733,2.5732,2.5666,2.5565,2.5528,2.5459,2.5434,2.5367,2.5331,2.5283,2.5164,2.5103,2.5155,2.5047,2.5108,2.5111,2.5127,2.5128,2.5369,2.5108,2.5108,2.5107,2.5107,0,2.6218,2.6225,2.603,2.6023,2.6027,2.5879,2.5889,2.5809,2.5721,2.5698,2.5562,2.5545,2.5387,2.5354,2.5261,2.5258,2.5242,2.5195,2.5171,2.5208,2.5215,2.5191,2.5179,2.5112,2.5111,2.511,2.5109,0,2.6459,2.6329,2.6305,2.6154,2.6117,2.6127,2.6,2.599,2.5897,2.5871,2.5857,2.5714,2.5667,2.5542,2.5465,2.5403,2.5426,2.538,2.5458,2.5443,2.5511,2.5507,2.5746,2.5771,2.5494,2.5497,2.5499,0,2.6577,2.6578,2.6427,2.6399,2.6338,2.6297,2.6257,2.6113,2.6078,2.5969,2.5973,2.5914,2.586,2.5794,2.5686,2.5627,2.5579,2.5667,2.557,2.5608,2.5583,2.5585,2.5586,2.5689,2.5693,2.5696,2.5698,0,2.6801,2.6737,2.6681,2.6605,2.656,2.6494,2.6421,2.6408,2.6247,2.6216,2.6164,2.6122,2.6041,2.5986,2.591,2.5847,2.5749,2.573,2.5741,2.578,2.5826,2.5804,2.5518,2.5725,2.5723,2.5721,2.5719,2.5718,2.6985,2.6979,2.6871,2.6816,2.6745,2.668,2.6662,2.6566,2.6519,2.6439,2.6358,2.6317,2.6223,2.611,2.6054,2.6022,2.597,2.5986,2.599,2.5997,2.6015,2.583,2.6008,2.6007,2.6006,2.6005,2.6005,0,2.7203,2.7126,2.7076,2.6976,2.6934,2.6839,2.6753,2.6726,2.6689,2.6607,2.6556,2.6499,2.6445,2.6333,2.627,2.6267,2.622,2.6256,2.6256,2.6243,2.6064,2.6061,2.6294,2.6294,2.6294,2.6294,2.6294,2.6294,2.7312,2.7297,2.7221,2.7171,2.7094,2.7048,2.7008,2.6949,2.6884,2.6824,2.6777,2.6703,2.661,2.654,2.6488,2.6457,2.6442,2.6493,2.6448,2.6283,2.6256,2.6229,2.6226,2.649,2.649,2.6629,2.663,2.6631]}]]